Helicity
-8 -30 -4 6 4 15 43 65 56 40 38 40 44 48 61 81 88 60 92 117 74 38 9 -17 -23 -18 -23 12 8 -2 -1 11 26 33 47 37 32 78 55 81 123 105 117 94 66 46 42 119 18 23 6 18 13 10
28 -7 19 10 15 38 37 24 30 31 42 30 38 56 78 73 70 68 69 104 72 41 24 14 -18 13 31 16 7 -7 -13 13 5 29 44 16 36 70 70 105 127 131 121 57 48 22 36 29 27 18 19 26 13 20
58 42 53 48 51 49 54 31 28 38 33 46 52 58 73 76 69 56 43 60 53 54 54 73 10 -11 2 -14 -4 13 -12 -19 -14 8 28 24 1 16 54 44 42 76 88 34 13 16 27 6 9 9 21 23 20 20
34 38 40 50 69 43 56 45 33 42 34 43 49 61 68 59 51 54 46 52 46 29 35 18 56 17 15 46 19 -4 -16 -4 -6 -16 -2 23 19 7 4 -13 -7 15 38 27 28 10 14 16 16 14 26 25 30 25
48 48 41 50 62 40 34 43 53 46 54 45 54 58 53 40 39 43 52 54 32 24 22 -10 126 27 24 16 5 -12 -8 -10 -14 -14 -7 13 8 4 -7 -33 -18 -2 7 6 4 7 26 12 11 25 29 26 23 30
54 49 28 33 46 48 41 45 46 50 41 47 54 48 48 31 45 52 51 52 14 7 26 -5 -18 -21 9 9 13 5 -17 -3 -15 -10 -19 -7 -2 -10 9 -5 -41 -18 10 -2 -5 29 51 24 19 16 46 41 41 40
56 48 23 19 29 48 53 61 64 54 41 48 43 45 42 43 67 46 24 26 48 -5 -1 -26 -34 -22 1 11 42 60 23 -4 -16 -8 -1 -2 16 7 -6 -27 -41 -7 19 35 13 10 16 -13 21 43 43 53 68 62
40 38 34 26 27 33 48 49 46 44 44 45 48 54 39 44 62 73 72 44 3 3 -8 -24 -41 -46 -20 -11 1 65 77 37 14 9 16 6 11 17 -4 -12 34 22 34 18 0 1 41 25 7 17 22 34 52 46
32 45 43 37 23 39 41 44 43 42 56 48 46 62 66 56 35 38 55 16 17 1 -10 -19 -5 -17 -16 -19 -9 46 42 45 26 38 10 5 16 20 -27 6 16 5 8 -9 5 19 5 1 0 11 24 43 46 26
93 73 48 35 59 46 39 29 30 38 47 41 84 83 69 71 53 34 28 6 -4 -15 -24 -28 -20 -19 -14 -17 -22 8 20 36 52 44 13 15 12 20 36 34 23 12 26 19 26 48 56 46 64 48 45 27 21 11
54 63 54 44 40 52 49 44 22 34 82 96 104 125 89 47 49 35 19 10 -8 -15 -17 -7 -8 -32 -13 -6 -9 4 4 46 70 46 13 11 3 -5 -6 35 41 51 64 49 61 59 61 99 83 63 39 21 9 6
37 45 39 36 46 27 28 28 45 91 78 107 119 84 89 74 40 21 9 -2 -7 -16 -10 6 -2 -1 6 2 7 18 10 41 54 25 13 20 12 24 43 23 71 93 90 116 145 138 104 83 57 42 21 19 19 30
29 24 24 42 36 31 42 36 68 51 90 142 152 96 83 42 27 16 5 -2 -4 -17 -14 -2 -7 1 16 27 32 24 12 47 34 24 22 9 26 44 87 99 110 119 137 142 135 121 95 63 28 44 56 32 35 37
48 31 10 38 22 31 33 38 70 98 97 143 135 93 70 37 19 -7 -17 8 -5 15 43 30 16 12 5 32 24 30 21 36 49 31 25 25 56 80 103 106 124 87 95 96 87 82 61 48 49 37 32 26 47 51
43 33 28 36 12 41 53 62 46 74 119 172 109 92 72 30 27 0 -14 25 40 24 47 31 30 21 23 30 19 38 41 53 33 29 1 41 97 139 109 102 107 88 72 73 69 45 45 46 47 31 14 26 46 44
35 51 74 26 29 48 78 98 75 59 105 136 134 100 71 27 15 22 13 16 12 27 43 35 20 28 19 27 21 32 31 57 44 30 38 110 131 123 108 94 84 68 64 62 33 36 40 38 33 29 29 35 23 30
85 99 31 33 59 64 101 91 64 113 74 172 157 103 79 57 42 11 -4 -12 26 28 13 7 18 3 -3 10 17 28 35 35 33 50 47 70 104 113 111 109 90 85 76 54 46 33 28 31 55 61 43 13 18 28
96 49 51 72 119 122 119 111 126 120 149 134 112 98 65 68 86 74 45 36 31 28 51 20 12 8 -6 10 34 27 38 71 69 63 74 96 111 115 110 111 93 89 87 61 46 48 48 60 63 41 32 48 57 42
68 88 52 49 101 100 102 126 158 146 145 35 9 24 33 39 63 71 56 60 46 36 47 46 19 10 25 -27 24 65 64 80 66 67 72 83 112 125 128 124 111 106 87 64 64 41 42 49 54 57 56 84 94 66
35 29 23 13 59 98 134 142 158 158 129 114 125 76 34 45 35 27 39 49 46 59 45 27 26 35 -5 -6 10 27 60 97 134 116 93 92 105 128 118 106 93 94 84 69 52 63 68 59 69 103 125 139 155 136
106 61 26 70 82 122 147 93 131 126 42 72 97 114 86 82 50 51 33 37 60 43 27 33 54 49 45 17 22 80 100 128 99 91 93 130 118 116 113 107 123 105 79 68 62 53 69 85 111 140 148 138 131 133
102 100 128 75 70 123 138 106 120 80 100 59 28 48 46 12 4 36 52 63 42 25 43 60 63 67 54 47 40 50 88 95 105 105 151 199 178 139 114 125 129 83 65 44 53 69 92 127 175 177 167 133 140 157
170 131 121 101 80 100 133 79 73 71 68 55 85 57 37 35 30 74 35 27 29 40 81 91 88 67 61 66 79 81 108 125 101 108 121 134 146 146 144 114 100 75 49 39 87 140 170 188 185 173 158 165 176 187
136 72 58 57 63 84 79 56 53 58 71 83 97 87 56 59 83 51 16 17 71 97 120 143 166 176 143 114 96 110 131 131 127 109 101 148 136 131 115 95 67 51 76 122 166 185 182 172 169 174 172 180 187 205
49 40 76 35 42 45 76 90 62 61 42 43 62 71 55 79 55 23 26 41 67 122 154 171 168 128 113 108 130 155 144 146 124 103 81 115 134 178 186 169 154 131 161 197 179 174 155 172 181 186 175 172 176 191
17 12 2 16 66 49 27 20 14 78 66 71 62 83 95 77 42 -6 14 49 85 122 144 129 95 75 97 136 172 170 135 136 165 153 121 107 127 176 188 187 191 179 130 140 165 162 170 181 192 187 169 162 178 210
-2 16 89 121 99 90 108 108 77 65 69 65 81 123 100 59 16 55 87 106 105 70 95 82 73 77 106 156 196 218 221 200 176 166 177 202 189 172 197 182 141 121 134 164 156 168 179 173 167 160 184 189 184 179
-65 -49 22 112 164 142 112 144 156 134 120 117 121 106 52 32 39 85 81 88 118 113 143 124 120 137 167 195 230 265 276 286 304 294 310 306 244 224 204 210 191 184 179 167 168 176 174 165 171 181 194 194 195 174
36 92 140 132 176 166 146 136 122 138 154 170 144 143 133 139 91 85 88 115 89 101 107 133 174 247 286 295 280 246 244 229 222 195 192 180 197 196 181 191 192 183 170 176 175 158 156 151 157 171 176 192 185 210
100 143 140 149 154 127 144 153 139 150 167 156 168 144 124 103 77 81 98 132 109 84 87 121 164 209 253 276 257 239 195 142 137 158 166 159 130 135 142 152 148 141 143 156 163 167 177 164 167 176 208 211 200 188
203 229 203 205 187 173 160 173 172 156 162 168 180 130 84 65 91 100 111 114 85 102 132 169 197 215 231 213 209 203 181 166 140 146 152 192 188 161 144 128 116 120 126 132 148 160 173 183 178 187 193 193 179 167
159 160 161 148 127 127 125 123 118 118 129 131 130 129 114 87 30 37 121 130 94 143 151 165 180 183 185 213 197 167 163 191 198 195 209 196 168 151 151 146 142 136 139 148 146 144 152 166 163 164 162 158 148 138
155 162 144 115 99 85 89 88 58 52 63 55 34 22 25 7 -20 41 94 142 112 154 160 177 204 214 218 221 220 221 225 215 207 212 213 197 165 147 134 125 123 131 139 132 125 127 149 159 153 146 138 134 122 110
Wind_Speed
21 20 23 25 23 20 17 16 15 15 14 10 8 7 9 10 14 17 19 22 22 18 20 21 26 27 27 27 31 34 20 32 29 26 24 25 28 25 21 21 27 24 27 23 23 20 24 36 23 25 25 34 39 41
19 20 21 20 18 15 14 12 12 12 12 8 6 7 6 10 14 19 21 23 24 22 21 23 20 22 24 24 28 33 25 29 28 27 25 25 25 24 23 22 26 25 23 25 23 17 20 23 27 27 31 32 38 43
19 18 23 16 16 12 13 12 15 17 13 11 8 8 6 10 15 18 19 24 23 25 24 24 27 25 24 26 23 28 31 31 30 31 29 29 26 28 23 23 23 23 24 16 20 20 23 29 32 29 30 34 39 40
19 22 19 14 12 17 20 18 19 14 11 4 6 8 7 12 16 21 19 23 23 25 26 23 28 24 23 21 22 26 30 31 34 31 31 29 28 27 24 21 22 23 24 18 16 17 25 24 27 32 34 38 40 39
22 16 12 13 14 17 18 24 25 15 8 6 6 8 11 14 18 21 24 25 26 27 27 26 37 24 18 20 20 28 33 32 32 31 30 31 31 29 27 25 24 27 24 22 21 19 20 23 27 34 35 37 40 36
19 10 7 11 14 17 20 32 26 16 9 7 8 12 15 14 19 22 22 26 27 27 29 29 29 25 20 19 18 36 38 36 33 33 33 33 30 33 32 33 32 27 27 27 21 18 22 28 33 34 34 35 34 32
13 9 8 8 14 19 20 20 21 17 13 12 11 12 11 14 19 22 22 24 28 23 28 29 31 30 25 20 24 32 38 35 35 35 33 33 34 32 33 35 27 22 18 14 17 22 25 28 28 32 29 30 29 31
11 14 12 6 13 20 20 21 18 14 12 13 8 7 10 11 18 19 21 23 19 23 26 29 29 32 32 28 24 31 34 36 36 35 35 33 32 31 34 22 17 19 18 17 19 25 24 31 29 28 29 29 28 29
13 10 7 6 10 19 19 17 13 11 11 5 4 5 18 22 23 25 28 20 24 25 26 26 29 31 30 31 32 30 32 36 34 33 34 31 30 31 29 15 16 15 21 14 18 22 26 26 26 28 27 28 32 31
14 10 8 14 15 12 13 19 16 16 15 11 19 23 23 30 27 19 25 26 27 25 23 21 25 29 32 32 28 26 31 34 33 34 31 33 31 28 20 20 19 21 9 8 7 10 11 19 22 19 24 34 33 33
17 11 11 12 14 12 12 14 15 16 19 26 24 23 22 19 21 23 24 24 24 24 22 22 18 20 26 29 29 30 32 31 32 33 33 35 35 36 33 27 35 43 24 14 8 17 25 28 31 29 30 31 32 32
15 13 14 15 20 12 13 11 14 28 29 26 21 18 21 23 23 23 24 26 21 22 22 25 24 20 24 25 24 31 34 33 37 32 36 36 32 21 19 47 11 20 22 9 13 22 23 26 29 30 30 31 32 33
14 14 16 17 15 14 15 14 22 12 14 24 25 25 23 25 23 20 17 19 20 18 20 22 25 24 24 24 25 31 33 37 35 37 37 34 21 10 24 27 19 14 15 15 19 27 29 29 28 30 30 31 31 31
17 16 16 20 17 14 13 18 15 22 26 29 24 20 27 26 30 22 20 20 19 19 21 22 24 27 26 24 25 33 35 35 38 38 38 35 30 37 29 23 25 17 14 24 27 27 30 34 33 32 31 30 30 31
18 19 20 25 20 16 14 13 18 26 27 31 33 31 33 30 26 23 22 19 21 16 19 23 27 26 25 26 23 33 35 38 39 37 34 24 6 13 25 26 8 11 23 23 24 31 35 33 32 29 28 28 29 31
17 18 32 29 21 16 13 17 23 26 32 33 36 34 30 22 22 20 18 18 21 17 21 26 27 28 24 23 25 35 35 37 35 33 28 13 5 4 13 16 17 19 22 24 31 31 31 31 28 26 26 26 27 30
17 26 26 23 19 15 16 24 26 30 36 35 33 29 25 21 22 20 20 19 22 17 23 27 28 26 26 25 33 33 35 33 32 27 20 12 7 4 2 5 10 11 17 22 21 25 26 25 24 24 25 25 26 29
26 19 22 21 17 19 27 29 30 34 40 34 31 27 25 29 25 21 23 23 24 26 28 29 27 23 21 27 33 34 32 28 25 22 18 14 10 6 3 3 7 8 11 15 18 20 20 19 20 22 25 29 31 32
19 17 20 20 25 26 29 35 33 36 38 32 31 28 25 25 27 28 30 31 30 31 33 28 28 23 26 42 36 34 33 28 25 24 20 15 13 8 6 10 2 3 9 13 13 14 15 16 20 23 24 29 33 39
19 22 20 26 32 31 31 36 39 36 39 35 31 28 26 27 28 31 34 35 35 35 36 33 29 28 38 39 35 37 27 15 15 18 18 15 10 8 3 6 6 3 7 6 7 11 14 18 22 25 30 32 36 43
22 37 17 34 33 32 38 36 45 40 34 37 35 32 32 30 31 32 35 35 37 40 40 37 32 35 39 39 37 29 15 10 12 16 15 13 9 5 2 8 5 4 1 2 5 11 14 15 18 24 32 37 39 42
26 21 30 37 38 37 39 39 41 39 38 37 32 37 38 43 42 41 38 42 46 46 40 33 27 30 41 41 36 29 15 13 18 22 16 11 8 2 4 6 3 2 1 2 8 11 16 19 20 26 32 36 40 45
20 26 28 33 40 40 39 37 37 39 43 47 45 45 45 44 38 29 45 49 51 45 40 37 30 34 37 36 33 28 15 11 14 15 13 11 9 5 1 1 0 3 2 4 10 15 16 21 25 30 35 41 44 48
29 29 33 41 45 42 39 39 37 37 38 41 45 49 45 42 31 44 51 49 45 36 32 25 21 27 34 36 36 22 13 10 12 13 12 10 8 5 7 4 2 2 7 10 12 15 17 22 28 36 40 43 46 49
36 47 42 39 46 41 40 40 40 38 39 43 44 42 37 31 41 51 54 52 44 38 27 24 26 39 45 41 31 20 13 7 8 11 10 10 13 12 11 11 14 13 9 11 14 16 21 27 33 36 40 44 49 53
49 48 45 43 41 42 43 40 38 36 36 39 42 33 35 39 51 59 51 44 41 32 22 27 40 45 43 31 20 11 9 11 10 11 17 10 5 5 5 7 11 19 20 15 16 20 23 28 33 39 45 48 50 54
46 43 43 45 44 37 34 37 35 33 31 35 31 30 34 49 57 48 40 43 44 41 36 36 40 36 30 22 17 15 14 12 11 14 20 19 16 9 6 6 8 17 20 21 21 21 24 30 35 40 45 48 51 55
51 49 45 35 35 38 31 31 35 38 40 33 26 38 41 42 45 40 41 43 41 31 32 34 30 23 14 8 7 9 12 11 13 13 16 22 24 22 19 18 18 19 23 26 27 28 30 33 37 41 46 51 55 55
50 42 32 34 33 33 28 19 23 37 38 38 38 40 40 40 42 41 42 45 38 34 35 30 25 15 12 13 13 11 8 8 5 11 14 15 18 21 20 18 20 23 25 28 31 32 34 36 40 44 48 51 53 55
40 34 36 35 38 43 41 37 36 36 39 38 33 37 42 42 39 39 39 38 38 38 32 25 15 9 8 8 10 12 15 15 16 13 11 10 11 12 15 18 20 23 26 28 31 34 37 40 43 46 51 54 58 62
33 36 37 37 38 39 34 32 35 38 40 42 41 42 40 38 40 39 41 42 38 30 25 20 17 14 8 7 7 6 12 23 20 20 21 15 12 13 16 18 20 22 26 29 33 36 39 43 47 51 54 58 62 64
34 34 29 31 34 32 28 34 39 45 45 47 46 42 44 50 56 53 46 45 38 30 23 17 14 15 14 13 15 18 15 14 15 14 15 15 15 16 18 20 22 24 28 31 35 38 42 47 50 53 57 60 62 64
32 32 32 31 33 39 41 42 45 46 46 48 53 54 55 56 57 53 46 43 38 22 17 16 15 14 12 12 12 13 14 15 16 17 18 18 19 20 21 23 24 27 30 33 37 41 45 48 52 55 58 60 61 60
Wind_Direction
141 137 127 119 120 135 154 160 175 189 196 190 214 235 253 287 289 286 282 295 290 347 357 9 26 43 40 47 40 23 356 304 293 316 294 300 309 293 283 282 258 263 259 274 274 277 272 311 297 325 30 30 34 25
163 155 140 137 139 157 173 172 186 181 183 198 230 247 280 298 287 289 281 288 301 336 6 351 92 90 84 84 44 2 317 294 297 284 288 289 315 305 303 275 303 277 280 263 278 305 286 314 3 1 22 25 42 52
151 148 148 152 174 184 187 195 205 203 214 229 240 250 294 302 294 286 291 290 306 334 358 18 34 43 55 88 352 22 309 296 295 283 267 269 292 313 300 303 306 299 308 302 291 327 346 5 11 2 8 28 45 47
141 132 144 163 185 210 213 207 205 200 217 205 229 255 295 292 290 274 294 286 319 342 26 37 342 17 350 49 27 329 306 287 291 288 272 272 274 284 296 303 318 282 273 293 330 342 10 342 351 24 30 40 47 44
125 135 170 201 213 215 212 209 214 207 215 225 257 273 277 293 284 276 275 282 312 349 30 34 279 5 60 36 6 298 276 279 295 288 283 272 273 270 273 271 290 273 287 300 313 316 319 334 6 40 39 43 57 39
118 123 193 208 207 206 205 205 210 206 206 242 266 266 272 292 279 274 296 289 297 347 11 34 25 61 71 47 352 277 258 272 290 293 284 280 290 281 271 269 263 272 272 267 287 320 17 32 39 44 44 43 38 27
119 115 138 187 199 194 197 200 204 208 224 246 262 266 283 286 272 279 297 287 280 345 20 40 40 64 95 56 336 289 265 276 289 285 285 288 292 298 288 285 284 297 303 338 29 27 17 31 43 46 33 30 22 23
133 112 112 138 193 198 199 202 204 215 235 238 242 278 287 279 268 272 275 275 334 347 9 41 50 48 58 64 52 284 273 273 283 288 280 286 295 302 296 313 323 323 330 340 347 355 46 65 53 43 39 35 25 20
194 133 136 167 191 203 200 201 207 219 221 215 245 284 260 261 260 263 255 307 310 341 20 43 49 50 100 73 94 248 265 261 276 277 273 270 284 294 311 349 338 343 325 22 33 44 56 52 50 47 38 37 43 38
188 189 201 216 209 191 183 204 212 213 217 219 240 253 254 242 245 279 291 309 321 344 4 45 353 48 79 87 54 306 263 251 256 252 260 244 259 276 304 298 299 288 331 306 351 7 18 39 44 21 30 63 56 49
197 200 209 220 213 187 182 207 212 204 221 237 244 257 246 248 272 286 303 316 341 1 23 20 37 68 27 74 88 262 242 259 245 242 241 228 234 226 227 240 215 194 234 259 304 50 65 70 76 63 56 54 52 48
198 210 222 230 219 163 188 203 196 225 231 238 246 253 243 264 285 297 303 309 344 10 32 35 29 65 351 38 18 270 250 248 226 251 231 228 243 265 52 154 360 54 55 7 44 65 57 61 69 67 63 58 55 53
196 213 232 216 198 186 204 200 222 224 229 232 244 247 262 273 290 305 330 351 354 7 36 23 17 20 347 351 348 270 256 242 250 237 232 240 269 360 69 75 53 40 43 44 52 66 68 64 60 67 63 57 55 45
205 213 221 209 193 194 199 202 221 232 236 242 255 263 268 278 275 297 315 330 339 1 50 19 0 357 351 343 337 269 258 254 245 242 240 237 117 110 90 74 77 56 46 71 72 71 77 80 75 71 68 61 50 43
206 217 218 211 200 204 202 204 234 240 245 250 251 261 260 274 285 295 313 325 327 25 13 354 343 5 353 7 335 266 257 247 248 251 261 268 354 81 99 94 29 57 80 75 76 89 92 85 81 69 60 52 42 34
214 215 226 207 198 192 196 226 247 248 253 258 256 260 265 283 290 297 324 324 320 343 333 332 334 344 14 20 302 255 254 248 252 265 284 313 329 42 90 87 82 84 84 87 99 96 91 90 78 60 51 45 38 28
220 232 203 185 180 185 224 242 246 248 251 262 265 272 273 282 289 296 311 317 305 324 333 330 329 352 38 325 268 253 250 258 267 286 313 352 19 58 45 50 75 76 86 97 92 92 88 78 58 38 34 31 24 18
226 194 163 164 191 224 245 246 244 252 250 260 267 272 282 277 284 296 303 300 298 293 303 314 345 6 15 299 265 260 263 277 294 313 336 340 16 28 316 57 74 81 94 98 91 86 78 63 37 29 19 12 9 6
202 169 158 178 220 239 244 238 252 251 250 259 267 273 279 281 278 280 283 285 286 285 295 321 321 358 302 234 258 261 265 284 303 314 336 17 66 70 310 290 10 79 108 104 86 77 63 42 22 11 8 4 359 356
146 133 151 213 230 241 244 242 242 251 247 252 262 262 271 271 275 275 277 280 276 278 285 300 306 314 267 256 277 268 288 333 7 357 7 17 35 60 14 278 275 110 107 72 35 37 21 10 7 13 8 5 359 355
208 217 203 223 238 244 244 244 237 248 252 252 251 255 262 269 275 283 279 275 270 274 283 296 305 293 275 277 276 286 322 0 9 6 24 30 32 35 334 292 293 283 297 20 28 3 1 9 11 6 360 357 357 356
222 217 228 231 237 244 246 246 244 245 249 251 250 251 257 258 271 278 281 269 268 269 286 308 318 303 277 275 280 292 325 346 342 341 7 29 62 47 271 288 279 229 225 18 360 5 2 5 11 1 358 357 356 354
215 227 234 236 235 242 245 244 243 244 246 245 247 250 256 264 278 292 272 267 271 283 295 304 309 297 283 279 285 293 327 353 349 8 39 38 6 352 18 9 109 141 77 19 0 358 3 6 3 359 356 354 353 353
225 233 235 235 233 236 239 240 242 246 250 246 245 248 258 266 287 275 264 272 285 301 306 315 315 300 282 279 279 301 326 355 0 18 28 32 9 353 315 326 92 102 351 357 6 8 5 359 357 353 353 353 353 352
222 219 229 236 227 235 237 238 243 250 248 245 248 256 268 283 277 268 270 279 294 300 311 316 305 277 265 270 285 301 321 3 15 351 8 352 318 318 326 334 332 340 8 6 1 0 356 354 353 354 354 352 350 350
222 220 229 230 234 238 239 245 249 255 259 257 260 277 283 283 274 264 279 294 296 306 317 302 270 259 263 279 293 312 338 345 354 344 312 322 359 52 44 11 350 341 343 356 357 352 352 353 353 352 351 351 352 351
244 249 251 245 244 254 261 258 260 269 275 273 281 282 288 279 268 283 300 295 293 291 285 278 266 271 279 289 307 325 330 339 1 340 311 307 315 341 32 17 356 346 352 356 356 355 353 353 353 354 354 356 355 353
208 208 224 255 260 260 274 274 272 272 274 283 291 285 287 286 287 298 297 287 287 289 279 277 280 292 309 345 21 19 352 20 21 358 341 328 326 333 347 359 8 10 4 2 1 2 1 359 358 357 356 354 354 356
244 261 273 271 274 277 288 299 295 280 282 276 279 282 286 291 285 288 282 281 277 274 273 281 287 305 329 344 345 355 49 71 27 315 317 329 336 342 358 13 10 7 7 7 7 7 7 5 3 2 1 360 360 1
269 273 276 277 275 273 279 286 287 287 282 281 291 291 284 283 291 296 291 278 265 265 274 284 298 325 348 0 352 345 334 331 321 326 337 345 350 15 13 10 11 12 12 13 10 9 7 5 4 3 2 1 359 358
277 275 282 285 286 288 295 299 294 285 282 283 285 282 283 287 282 281 272 264 262 274 282 294 304 317 348 2 13 24 335 316 321 330 341 7 30 25 21 20 21 21 17 15 12 10 8 6 3 1 0 359 359 358
277 279 288 292 293 298 300 291 282 276 274 272 273 277 270 260 246 246 258 259 264 278 291 301 308 318 329 339 342 342 348 352 348 360 15 29 33 35 33 31 29 25 21 17 13 10 8 4 3 2 1 360 360 1
284 282 286 291 286 274 271 268 262 262 262 260 249 247 244 241 239 243 259 267 268 287 301 310 319 333 350 359 9 14 10 11 19 26 36 43 47 45 40 35 32 27 22 16 12 10 7 5 4 3 2 2 3 5